Time,TemperatureF,DewpointF,PressureIn,WindDirection,WindDirectionDegrees,WindSpeedMPH,WindSpeedGustMPH,Humidity,HourlyPrecipIn,Conditions,Clouds,dailyrainin,SoftwareType,DateUTC
2013-03-04 00:01:00,28.0,26.0,-100.00,SE,130,21.0,27.0,89,0.00,,,-99.99,,2013-03-04 06:01:00,
2013-03-04 00:11:00,28.0,26.0,-100.00,SE,130,23.0,28.0,90,0.00,,,-99.99,,2013-03-04 06:11:00,
2013-03-04 00:21:00,28.0,26.0,-100.00,SE,130,23.0,28.0,90,0.00,,,-99.99,,2013-03-04 06:21:00,
2013-03-04 00:32:00,27.0,26.0,-100.00,SE,130,24.0,30.0,92,0.00,,,-99.99,,2013-03-04 06:32:00,
2013-03-04 00:42:00,27.0,26.0,-100.00,SE,125,24.0,32.0,92,0.00,,,-99.99,,2013-03-04 06:42:00,
2013-03-04 00:51:00,27.0,26.0,-100.00,SE,125,26.0,31.0,92,0.00,,,-99.99,,2013-03-04 06:51:00,
2013-03-04 01:01:00,28.0,26.0,-100.00,SE,130,22.0,31.0,92,0.00,,,-99.99,,2013-03-04 07:01:00,
2013-03-04 01:11:00,28.0,26.0,-100.00,SE,135,19.0,29.0,92,0.00,,,-99.99,,2013-03-04 07:11:00,
2013-03-04 01:21:00,27.0,26.0,-100.00,SE,135,23.0,27.0,92,0.00,,,-99.99,,2013-03-04 07:21:00,
2013-03-04 01:32:00,27.0,25.0,-100.00,SE,135,22.0,28.0,92,0.00,,,-99.99,,2013-03-04 07:32:00,
2013-03-04 01:41:00,27.0,25.0,-100.00,SE,135,20.0,26.0,92,0.00,,,-99.99,,2013-03-04 07:41:00,
2013-03-04 01:51:00,27.0,25.0,-100.00,SE,130,21.0,26.0,92,0.00,,,-99.99,,2013-03-04 07:51:00,
2013-03-04 02:02:00,27.0,25.0,-100.00,SE,130,24.0,29.0,92,0.00,,,-99.99,,2013-03-04 08:02:00,
2013-03-04 02:11:00,27.0,25.0,-100.00,SE,135,20.0,26.0,92,0.00,,,-99.99,,2013-03-04 08:11:00,
2013-03-04 02:21:00,27.0,25.0,-100.00,SE,130,22.0,27.0,92,0.00,,,-99.99,,2013-03-04 08:21:00,
2013-03-04 02:32:00,27.0,25.0,-100.00,SE,130,24.0,27.0,92,0.00,,,-99.99,,2013-03-04 08:32:00,
2013-03-04 02:42:00,26.0,24.0,-100.00,SE,130,24.0,30.0,92,0.00,,,-99.99,,2013-03-04 08:42:00,
2013-03-04 02:52:00,26.0,24.0,-100.00,SE,135,21.0,28.0,92,0.00,,,-99.99,,2013-03-04 08:52:00,
2013-03-04 03:01:00,27.0,25.0,-100.00,SE,135,24.0,32.0,92,0.00,,,-99.99,,2013-03-04 09:01:00,
2013-03-04 03:11:00,27.0,25.0,-100.00,SE,135,26.0,29.0,92,0.00,,,-99.99,,2013-03-04 09:11:00,
2013-03-04 03:21:00,27.0,25.0,-100.00,SE,135,26.0,30.0,92,0.00,,,-99.99,,2013-03-04 09:21:00,
2013-03-04 03:32:00,27.0,25.0,-100.00,SE,130,26.0,32.0,92,0.00,,,-99.99,,2013-03-04 09:32:00,
2013-03-04 03:42:00,27.0,25.0,-100.00,SE,135,28.0,32.0,92,0.00,,,-99.99,,2013-03-04 09:42:00,
2013-03-04 03:51:00,27.0,25.0,-100.00,SE,130,24.0,29.0,92,0.00,,,-99.99,,2013-03-04 09:51:00,
2013-03-04 04:01:00,27.0,25.0,-100.00,SE,130,24.0,29.0,92,0.00,,,-99.99,,2013-03-04 10:01:00,
2013-03-04 04:11:00,27.0,25.0,-100.00,SE,130,22.0,27.0,92,0.00,,,-99.99,,2013-03-04 10:11:00,
2013-03-04 04:21:00,27.0,25.0,-100.00,SE,135,22.0,27.0,92,0.00,,,-99.99,,2013-03-04 10:21:00,
2013-03-04 04:32:00,27.0,25.0,-100.00,SE,135,21.0,27.0,92,0.00,,,-99.99,,2013-03-04 10:32:00,
2013-03-04 04:42:00,27.0,25.0,-100.00,SE,135,19.0,27.0,93,0.00,,,-99.99,,2013-03-04 10:42:00,
2013-03-04 04:52:00,27.0,25.0,-100.00,SE,135,22.0,29.0,93,0.00,,,-99.99,,2013-03-04 10:52:00,
2013-03-04 05:01:00,27.0,25.0,-100.00,SE,135,22.0,29.0,93,0.00,,,-99.99,,2013-03-04 11:01:00,
2013-03-04 05:11:00,27.0,25.0,-100.00,SE,140,24.0,29.0,93,0.00,,,-99.99,,2013-03-04 11:11:00,
2013-03-04 05:21:00,27.0,25.0,-100.00,SE,135,21.0,29.0,93,0.00,,,-99.99,,2013-03-04 11:21:00,
2013-03-04 05:32:00,27.0,25.0,-100.00,SE,130,20.0,26.0,93,0.00,,,-99.99,,2013-03-04 11:32:00,
2013-03-04 05:42:00,27.0,25.0,-100.00,SE,130,18.0,23.0,93,0.00,,,-99.99,,2013-03-04 11:42:00,
2013-03-04 05:52:00,27.0,25.0,-100.00,SE,135,20.0,24.0,93,0.00,,,-99.99,,2013-03-04 11:52:00,
2013-03-04 06:01:00,27.0,25.0,-100.00,SE,135,20.0,24.0,93,0.00,,,-99.99,,2013-03-04 12:01:00,
2013-03-04 06:11:00,27.0,25.0,-100.00,SE,130,19.0,25.0,93,0.00,,,-99.99,,2013-03-04 12:11:00,
2013-03-04 06:22:00,27.0,25.0,-100.00,SE,130,18.0,24.0,93,0.00,,,-99.99,,2013-03-04 12:22:00,
2013-03-04 06:32:00,27.0,26.0,-100.00,SE,130,17.0,24.0,93,0.00,,,-99.99,,2013-03-04 12:32:00,
2013-03-04 06:42:00,27.0,26.0,-100.00,SE,130,19.0,26.0,93,0.00,,,-99.99,,2013-03-04 12:42:00,
2013-03-04 06:52:00,27.0,26.0,-100.00,SE,130,19.0,22.0,93,0.00,,,-99.99,,2013-03-04 12:52:00,
2013-03-04 07:02:00,27.0,26.0,-100.00,SE,130,19.0,22.0,93,0.00,,,-99.99,,2013-03-04 13:02:00,
2013-03-04 07:11:00,27.0,26.0,-100.00,SE,130,14.0,24.0,93,0.00,,,-99.99,,2013-03-04 13:11:00,
2013-03-04 07:21:00,27.0,26.0,-100.00,SE,135,17.0,21.0,93,0.00,,,-99.99,,2013-03-04 13:21:00,
2013-03-04 07:32:00,27.0,26.0,-100.00,SE,125,17.0,23.0,93,0.00,,,-99.99,,2013-03-04 13:32:00,
2013-03-04 07:41:00,27.0,26.0,-100.00,SE,130,18.0,24.0,93,0.00,,,-99.99,,2013-03-04 13:41:00,
2013-03-04 07:51:00,27.0,26.0,-100.00,SE,130,19.0,24.0,93,0.00,,,-99.99,,2013-03-04 13:51:00,
2013-03-04 08:01:00,27.0,26.0,-100.00,SE,130,19.0,24.0,93,0.00,,,-99.99,,2013-03-04 14:01:00,
2013-03-04 08:11:00,27.0,26.0,-100.00,SE,130,17.0,21.0,93,0.00,,,-99.99,,2013-03-04 14:11:00,
2013-03-04 08:22:00,28.0,26.0,-100.00,SE,135,20.0,24.0,93,0.00,,,-99.99,,2013-03-04 14:22:00,
2013-03-04 08:32:00,28.0,26.0,-100.00,SE,125,17.0,24.0,93,0.00,,,-99.99,,2013-03-04 14:32:00,
2013-03-04 08:42:00,28.0,26.0,-100.00,SE,125,19.0,24.0,93,0.00,,,-99.99,,2013-03-04 14:42:00,
2013-03-04 08:52:00,28.0,27.0,-100.00,SE,125,17.0,21.0,93,0.00,,,-99.99,,2013-03-04 14:52:00,
2013-03-04 09:01:00,28.0,27.0,-100.00,SE,125,17.0,21.0,93,0.00,,,-99.99,,2013-03-04 15:01:00,
2013-03-04 09:11:00,28.0,27.0,-100.00,SE,125,17.0,21.0,93,0.00,,,-99.99,,2013-03-04 15:11:00,
2013-03-04 09:21:00,28.0,27.0,-100.00,SE,130,18.0,22.0,93,0.00,,,-99.99,,2013-03-04 15:21:00,
2013-03-04 09:32:00,29.0,27.0,-100.00,SE,125,16.0,21.0,93,0.00,,,-99.99,,2013-03-04 15:32:00,
2013-03-04 09:42:00,29.0,27.0,-100.00,SE,135,16.0,20.0,93,0.00,,,-99.99,,2013-03-04 15:42:00,
2013-03-04 09:51:00,29.0,28.0,-100.00,SE,125,15.0,21.0,93,0.00,,,-99.99,,2013-03-04 15:51:00,
2013-03-04 10:02:00,29.0,28.0,-100.00,SE,125,15.0,21.0,93,0.00,,,-99.99,,2013-03-04 16:02:00,
2013-03-04 10:11:00,29.0,28.0,-100.00,SE,130,16.0,20.0,93,0.00,,,-99.99,,2013-03-04 16:11:00,
2013-03-04 10:21:00,29.0,28.0,-100.00,SE,130,15.0,19.0,93,0.00,,,-99.99,,2013-03-04 16:21:00,
2013-03-04 10:32:00,30.0,28.0,-100.00,SE,140,16.0,21.0,93,0.00,,,-99.99,,2013-03-04 16:32:00,
2013-03-04 10:42:00,30.0,28.0,-100.00,SE,135,17.0,21.0,93,0.00,,,-99.99,,2013-03-04 16:42:00,
2013-03-04 10:52:00,30.0,28.0,-100.00,SE,130,14.0,20.0,93,0.00,,,-99.99,,2013-03-04 16:52:00,
2013-03-04 11:02:00,30.0,29.0,-100.00,SE,140,14.0,21.0,93,0.00,,,-99.99,,2013-03-04 17:02:00,
2013-03-04 11:11:00,30.0,29.0,-100.00,SE,130,17.0,21.0,93,0.00,,,-99.99,,2013-03-04 17:11:00,
2013-03-04 11:22:00,30.0,29.0,-100.00,SE,135,17.0,21.0,93,0.00,,,-99.99,,2013-03-04 17:22:00,
2013-03-04 11:32:00,30.0,29.0,-100.00,SE,140,15.0,21.0,93,0.00,,,-99.99,,2013-03-04 17:32:00,
2013-03-04 11:42:00,30.0,29.0,-100.00,SE,145,14.0,21.0,93,0.00,,,-99.99,,2013-03-04 17:42:00,
2013-03-04 11:52:00,31.0,29.0,-100.00,SE,130,14.0,16.0,93,0.00,,,-99.99,,2013-03-04 17:52:00,
2013-03-04 12:01:00,31.0,29.0,-100.00,SE,130,14.0,16.0,93,0.00,,,-99.99,,2013-03-04 18:01:00,
2013-03-04 12:11:00,31.0,29.0,-100.00,SE,135,12.0,17.0,93,0.00,,,-99.99,,2013-03-04 18:11:00,
2013-03-04 12:21:00,31.0,29.0,-100.00,SE,145,12.0,16.0,93,0.00,,,-99.99,,2013-03-04 18:21:00,
2013-03-04 12:32:00,31.0,29.0,-100.00,SSE,150,12.0,14.0,93,0.00,,,-99.99,,2013-03-04 18:32:00,
2013-03-04 12:42:00,31.0,29.0,-100.00,SE,135,12.0,14.0,93,0.00,,,-99.99,,2013-03-04 18:42:00,
2013-03-04 12:52:00,31.0,30.0,-100.00,SE,145,11.0,14.0,93,0.00,,,-99.99,,2013-03-04 18:52:00,
2013-03-04 13:02:00,31.0,30.0,-100.00,SE,145,11.0,14.0,93,0.00,,,-99.99,,2013-03-04 19:02:00,
2013-03-04 13:11:00,31.0,30.0,-100.00,SE,145,10.0,12.0,93,0.00,,,-99.99,,2013-03-04 19:11:00,
2013-03-04 13:21:00,31.0,29.0,-100.00,SE,135,9.0,11.0,93,0.00,,,-99.99,,2013-03-04 19:21:00,
2013-03-04 13:32:00,31.0,30.0,-100.00,SE,130,8.0,11.0,93,0.00,,,-99.99,,2013-03-04 19:32:00,
2013-03-04 13:42:00,31.0,30.0,-100.00,SE,145,7.0,9.0,93,0.00,,,-99.99,,2013-03-04 19:42:00,
2013-03-04 13:51:00,31.0,30.0,-100.00,ESE,110,7.0,9.0,93,0.00,,,-99.99,,2013-03-04 19:51:00,
2013-03-04 14:01:00,31.0,30.0,-100.00,ESE,110,7.0,9.0,93,0.00,,,-99.99,,2013-03-04 20:01:00,
2013-03-04 14:11:00,31.0,30.0,-100.00,ESE,115,7.0,7.0,93,0.00,,,-99.99,,2013-03-04 20:11:00,
2013-03-04 14:22:00,32.0,30.0,-100.00,ESE,110,6.0,9.0,93,0.00,,,-99.99,,2013-03-04 20:22:00,
2013-03-04 14:32:00,32.0,30.0,-100.00,ESE,110,6.0,7.0,93,0.00,,,-99.99,,2013-03-04 20:32:00,
2013-03-04 14:42:00,32.0,30.0,-100.00,East,95,6.0,8.0,93,0.00,,,-99.99,,2013-03-04 20:42:00,
2013-03-04 14:52:00,32.0,30.0,-100.00,ESE,105,4.0,7.0,93,0.00,,,-99.99,,2013-03-04 20:52:00,
2013-03-04 15:02:00,32.0,30.0,-100.00,ESE,105,4.0,7.0,93,0.00,,,-99.99,,2013-03-04 21:02:00,
2013-03-04 15:11:00,32.0,30.0,-100.00,East,100,6.0,6.0,93,0.00,,,-99.99,,2013-03-04 21:11:00,
2013-03-04 15:21:00,32.0,30.0,-100.00,East,95,5.0,7.0,93,0.00,,,-99.99,,2013-03-04 21:21:00,
2013-03-04 15:32:00,32.0,30.0,-100.00,East,90,5.0,7.0,93,0.00,,,-99.99,,2013-03-04 21:32:00,
2013-03-04 15:42:00,31.0,30.0,-100.00,ENE,65,8.0,9.0,93,0.00,,,-99.99,,2013-03-04 21:42:00,
2013-03-04 15:52:00,31.0,29.0,-100.00,ENE,75,12.0,14.0,94,0.00,,,-99.99,,2013-03-04 21:52:00,
2013-03-04 16:01:00,31.0,29.0,-100.00,ENE,75,12.0,14.0,94,0.00,,,-99.99,,2013-03-04 22:01:00,
2013-03-04 16:12:00,30.0,29.0,-100.00,ENE,75,12.0,14.0,95,0.00,,,-99.99,,2013-03-04 22:12:00,
2013-03-04 16:22:00,30.0,29.0,-100.00,ENE,75,11.0,14.0,96,0.00,,,-99.99,,2013-03-04 22:22:00,
2013-03-04 16:32:00,30.0,29.0,-100.00,ENE,75,11.0,14.0,96,0.00,,,-99.99,,2013-03-04 22:32:00,
2013-03-04 16:42:00,30.0,29.0,-100.00,East,85,12.0,14.0,96,0.00,,,-99.99,,2013-03-04 22:42:00,
2013-03-04 16:52:00,30.0,29.0,-100.00,East,80,12.0,14.0,96,0.00,,,-99.99,,2013-03-04 22:52:00,
2013-03-04 17:01:00,30.0,29.0,-100.00,East,80,12.0,14.0,96,0.00,,,-99.99,,2013-03-04 23:01:00,
2013-03-04 17:11:00,30.0,29.0,-100.00,East,85,11.0,13.0,96,0.00,,,-99.99,,2013-03-04 23:11:00,
2013-03-04 17:22:00,30.0,29.0,-100.00,East,90,12.0,14.0,96,0.00,,,-99.99,,2013-03-04 23:22:00,
2013-03-04 17:32:00,30.0,29.0,-100.00,East,85,12.0,16.0,96,0.00,,,-99.99,,2013-03-04 23:32:00,
2013-03-04 17:42:00,29.0,29.0,-100.00,East,95,11.0,14.0,96,0.00,,,-99.99,,2013-03-04 23:42:00,
2013-03-04 17:52:00,29.0,29.0,-100.00,East,95,9.0,12.0,96,0.00,,,-99.99,,2013-03-04 23:52:00,
2013-03-04 18:02:00,29.0,29.0,-100.00,East,95,9.0,12.0,96,0.00,,,-99.99,,2013-03-05 00:02:00,
2013-03-04 18:11:00,29.0,29.0,-100.00,ESE,110,9.0,10.0,96,0.00,,,-99.99,,2013-03-05 00:11:00,
2013-03-04 18:21:00,30.0,29.0,-100.00,ESE,110,7.0,10.0,96,0.00,,,-99.99,,2013-03-05 00:21:00,
2013-03-04 18:32:00,30.0,29.0,-100.00,East,95,4.0,7.0,96,0.41,,,-99.99,,2013-03-05 00:32:00,
2013-03-04 18:42:00,30.0,29.0,-100.00,ENE,65,2.0,3.0,96,0.41,,,-99.99,,2013-03-05 00:42:00,
2013-03-04 18:51:00,30.0,29.0,-100.00,NNE,30,1.0,2.0,96,0.35,,,-99.99,,2013-03-05 00:51:00,
2013-03-04 19:01:00,30.0,29.0,-100.00,NNE,25,1.0,2.0,96,0.35,,,-99.99,,2013-03-05 01:01:00,
2013-03-04 19:12:00,30.0,29.0,-100.00,NW,325,1.0,2.0,96,0.30,,,-99.99,,2013-03-05 01:12:00,
2013-03-04 19:21:00,30.0,29.0,-100.00,NW,310,0.0,2.0,96,0.44,,,-99.99,,2013-03-05 01:21:00,
2013-03-04 19:32:00,30.0,29.0,-100.00,ENE,65,1.0,2.0,96,0.31,,,-99.99,,2013-03-05 01:32:00,
2013-03-04 19:41:00,30.0,29.0,-100.00,North,355,0.0,0.0,96,0.00,,,-99.99,,2013-03-05 01:41:00,
2013-03-04 19:51:00,30.0,29.0,-100.00,WNW,300,2.0,2.0,96,0.00,,,-99.99,,2013-03-05 01:51:00,
2013-03-04 20:01:00,30.0,29.0,-100.00,WNW,300,2.0,2.0,96,0.00,,,-99.99,,2013-03-05 02:01:00,
2013-03-04 20:11:00,30.0,29.0,-100.00,NE,55,2.0,3.0,96,0.00,,,-99.99,,2013-03-05 02:11:00,
2013-03-04 20:21:00,30.0,29.0,-100.00,ENE,60,0.0,3.0,96,0.00,,,-99.99,,2013-03-05 02:21:00,
2013-03-04 20:32:00,30.0,29.0,-100.00,NW,305,0.0,0.0,96,0.00,,,-99.99,,2013-03-05 02:32:00,
2013-03-04 20:42:00,30.0,29.0,-100.00,WNW,290,1.0,2.0,96,0.00,,,-99.99,,2013-03-05 02:42:00,
2013-03-04 20:52:00,30.0,29.0,-100.00,NW,310,2.0,3.0,96,0.00,,,-99.99,,2013-03-05 02:52:00,
2013-03-04 21:02:00,30.0,29.0,-100.00,NW,310,2.0,3.0,96,0.00,,,-99.99,,2013-03-05 03:02:00,
2013-03-04 21:12:00,30.0,29.0,-100.00,NW,310,1.0,2.0,96,0.00,,,-99.99,,2013-03-05 03:12:00,
2013-03-04 21:22:00,30.0,29.0,-100.00,WNW,290,2.0,3.0,96,0.00,,,-99.99,,2013-03-05 03:22:00,
2013-03-04 21:32:00,30.0,29.0,-100.00,WNW,285,2.0,4.0,96,0.00,,,-99.99,,2013-03-05 03:32:00,
2013-03-04 21:42:00,30.0,29.0,-100.00,NW,310,0.0,2.0,96,0.00,,,-99.99,,2013-03-05 03:42:00,
2013-03-04 21:52:00,30.0,29.0,-100.00,NW,310,2.0,3.0,96,0.00,,,-99.99,,2013-03-05 03:52:00,
2013-03-04 22:01:00,30.0,29.0,-100.00,NW,310,2.0,3.0,96,0.00,,,-99.99,,2013-03-05 04:01:00,
2013-03-04 22:11:00,30.0,29.0,-100.00,WNW,290,3.0,3.0,96,0.00,,,-99.99,,2013-03-05 04:11:00,
2013-03-04 22:22:00,30.0,29.0,-100.00,WNW,285,2.0,3.0,96,0.00,,,-99.99,,2013-03-05 04:22:00,
2013-03-04 22:32:00,30.0,29.0,-100.00,WNW,295,4.0,6.0,96,0.00,,,-99.99,,2013-03-05 04:32:00,
2013-03-04 22:42:00,30.0,29.0,-100.00,WNW,290,6.0,7.0,96,0.00,,,-99.99,,2013-03-05 04:42:00,
2013-03-04 22:52:00,30.0,29.0,-100.00,WNW,290,6.0,7.0,96,0.00,,,-99.99,,2013-03-05 04:52:00,
2013-03-04 23:02:00,30.0,29.0,-100.00,WNW,285,6.0,7.0,96,0.00,,,-99.99,,2013-03-05 05:02:00,
2013-03-04 23:12:00,30.0,29.0,-100.00,WNW,290,5.0,7.0,96,0.00,,,-99.99,,2013-03-05 05:12:00,
2013-03-04 23:22:00,30.0,29.0,-100.00,West,280,7.0,8.0,96,0.00,,,-99.99,,2013-03-05 05:22:00,
2013-03-04 23:32:00,30.0,29.0,-100.00,WNW,290,7.0,9.0,96,0.00,,,-99.99,,2013-03-05 05:32:00,
2013-03-04 23:42:00,30.0,29.0,-100.00,West,280,8.0,11.0,96,0.25,,,-99.99,,2013-03-05 05:42:00,
2013-03-04 23:52:00,30.0,29.0,-100.00,WNW,285,10.0,13.0,96,0.34,,,-99.99,,2013-03-05 05:52:00,